QPF
0.00 0.00 0.00 0.00 0.00 0.00 0.00 0.00 0.00 0.00 0.00 0.00 0.00 0.00 0.00 0.00 0.00 0.00 0.00 0.00 0.00 0.00 0.00 0.00 0.00 0.01 0.01 0.01 0.02 0.02 0.01 0.01 0.01 0.03 0.05 0.04 0.02 0.02 0.03 0.06 0.09 0.10 0.08 0.08
0.00 0.00 0.00 0.00 0.00 0.00 0.00 0.00 0.00 0.00 0.00 0.00 0.00 0.00 0.00 0.00 0.00 0.00 0.00 0.00 0.00 0.00 0.00 0.01 0.01 0.01 0.01 0.01 0.01 0.01 0.01 0.01 0.01 0.01 0.01 0.02 0.01 0.02 0.03 0.04 0.05 0.07 0.08 0.09
0.00 0.00 0.00 0.00 0.00 0.00 0.00 0.00 0.00 0.00 0.00 0.00 0.00 0.00 0.00 0.00 0.00 0.00 0.00 0.00 0.00 0.00 0.00 0.00 0.01 0.01 0.01 0.01 0.01 0.00 0.00 0.01 0.01 0.01 0.01 0.01 0.01 0.02 0.03 0.04 0.05 0.06 0.05 0.05
0.00 0.00 0.00 0.00 0.00 0.00 0.00 0.00 0.00 0.00 0.00 0.00 0.00 0.00 0.00 0.00 0.00 0.00 0.00 0.01 0.01 0.00 0.00 0.01 0.02 0.02 0.02 0.01 0.01 0.01 0.01 0.01 0.01 0.01 0.02 0.02 0.03 0.05 0.05 0.05 0.05 0.05 0.05 0.05
0.00 0.00 0.00 0.00 0.00 0.00 0.00 0.00 0.00 0.00 0.00 0.00 0.00 0.00 0.00 0.00 0.00 0.00 0.00 0.00 0.00 0.00 0.01 0.03 0.04 0.03 0.03 0.02 0.01 0.01 0.01 0.01 0.01 0.01 0.02 0.02 0.03 0.04 0.05 0.06 0.06 0.05 0.04 0.05
0.00 0.00 0.00 0.00 0.00 0.00 0.00 0.00 0.00 0.00 0.00 0.00 0.00 0.00 0.00 0.00 0.00 0.00 0.00 0.01 0.01 0.01 0.04 0.05 0.04 0.05 0.05 0.03 0.02 0.01 0.01 0.02 0.01 0.02 0.02 0.03 0.04 0.04 0.04 0.05 0.07 0.07 0.04 0.04
0.00 0.00 0.00 0.00 0.00 0.00 0.01 0.00 0.00 0.00 0.00 0.00 0.00 0.00 0.00 0.00 0.00 0.01 0.01 0.01 0.01 0.02 0.03 0.04 0.04 0.05 0.04 0.03 0.02 0.02 0.02 0.02 0.02 0.02 0.03 0.03 0.04 0.04 0.04 0.04 0.05 0.05 0.04 0.03
0.00 0.00 0.00 0.00 0.00 0.01 0.01 0.00 0.00 0.00 0.01 0.01 0.01 0.01 0.01 0.01 0.01 0.02 0.02 0.03 0.03 0.03 0.04 0.05 0.06 0.06 0.05 0.03 0.03 0.03 0.03 0.04 0.04 0.05 0.06 0.04 0.04 0.04 0.03 0.03 0.03 0.03 0.04 0.04
0.00 0.00 0.00 0.00 0.00 0.01 0.00 0.01 0.01 0.01 0.01 0.01 0.01 0.01 0.01 0.01 0.01 0.01 0.02 0.03 0.04 0.04 0.04 0.05 0.05 0.05 0.06 0.04 0.03 0.03 0.03 0.04 0.08 0.11 0.11 0.08 0.05 0.04 0.03 0.03 0.03 0.03 0.03 0.02
0.00 0.00 0.00 0.01 0.01 0.01 0.01 0.01 0.01 0.01 0.01 0.01 0.01 0.01 0.01 0.01 0.02 0.01 0.01 0.02 0.04 0.04 0.05 0.04 0.03 0.04 0.04 0.03 0.03 0.03 0.02 0.02 0.02 0.04 0.06 0.05 0.04 0.03 0.03 0.03 0.03 0.03 0.02 0.02
0.01 0.01 0.01 0.01 0.01 0.02 0.02 0.02 0.02 0.02 0.02 0.02 0.02 0.01 0.01 0.01 0.02 0.03 0.02 0.03 0.04 0.04 0.03 0.03 0.02 0.02 0.03 0.03 0.02 0.02 0.02 0.01 0.01 0.02 0.01 0.01 0.01 0.02 0.02 0.02 0.02 0.02 0.03 0.03
0.01 0.01 0.01 0.01 0.01 0.01 0.02 0.02 0.02 0.02 0.02 0.01 0.01 0.01 0.02 0.03 0.02 0.03 0.03 0.03 0.03 0.03 0.03 0.04 0.03 0.03 0.03 0.02 0.02 0.02 0.02 0.02 0.02 0.02 0.01 0.01 0.01 0.01 0.01 0.01 0.01 0.01 0.01 0.01
0.01 0.01 0.01 0.01 0.01 0.01 0.01 0.02 0.02 0.01 0.01 0.01 0.01 0.01 0.01 0.02 0.02 0.02 0.02 0.02 0.02 0.03 0.03 0.04 0.04 0.03 0.02 0.02 0.01 0.01 0.02 0.02 0.02 0.02 0.01 0.01 0.01 0.01 0.01 0.01 0.01 0.01 0.01 0.01
0.01 0.01 0.01 0.01 0.01 0.01 0.01 0.02 0.01 0.01 0.01 0.01 0.01 0.01 0.01 0.01 0.01 0.01 0.02 0.02 0.02 0.02 0.02 0.02 0.03 0.02 0.02 0.02 0.02 0.02 0.02 0.03 0.02 0.02 0.02 0.02 0.02 0.02 0.02 0.02 0.01 0.01 0.01 0.02
0.01 0.01 0.01 0.01 0.01 0.01 0.01 0.02 0.02 0.01 0.01 0.01 0.02 0.02 0.02 0.01 0.01 0.01 0.01 0.01 0.01 0.02 0.02 0.01 0.02 0.02 0.03 0.02 0.03 0.02 0.03 0.03 0.03 0.03 0.02 0.02 0.02 0.02 0.02 0.01 0.01 0.02 0.02 0.03
0.01 0.01 0.01 0.01 0.01 0.01 0.01 0.01 0.02 0.02 0.02 0.02 0.03 0.03 0.02 0.02 0.02 0.02 0.02 0.02 0.02 0.02 0.02 0.01 0.01 0.02 0.02 0.02 0.02 0.02 0.02 0.03 0.04 0.03 0.03 0.03 0.02 0.02 0.02 0.02 0.03 0.04 0.05 0.05
0.01 0.01 0.01 0.01 0.01 0.01 0.01 0.01 0.01 0.02 0.04 0.05 0.05 0.04 0.04 0.03 0.03 0.02 0.02 0.01 0.01 0.01 0.02 0.01 0.01 0.01 0.02 0.02 0.02 0.02 0.03 0.03 0.04 0.03 0.03 0.03 0.04 0.04 0.04 0.05 0.05 0.06 0.06 0.06
0.02 0.02 0.02 0.01 0.01 0.01 0.01 0.02 0.02 0.02 0.03 0.04 0.05 0.05 0.05 0.05 0.04 0.03 0.02 0.01 0.01 0.01 0.01 0.01 0.02 0.02 0.02 0.02 0.02 0.02 0.03 0.04 0.04 0.05 0.05 0.05 0.05 0.05 0.06 0.06 0.07 0.07 0.07 0.07
0.03 0.04 0.03 0.02 0.01 0.01 0.02 0.03 0.03 0.04 0.03 0.04 0.05 0.05 0.06 0.06 0.05 0.05 0.03 0.02 0.02 0.02 0.02 0.03 0.03 0.04 0.06 0.05 0.05 0.04 0.04 0.03 0.04 0.04 0.03 0.03 0.04 0.04 0.05 0.05 0.05 0.05 0.06 0.06
0.04 0.05 0.04 0.02 0.01 0.02 0.03 0.03 0.03 0.04 0.05 0.05 0.06 0.06 0.07 0.06 0.05 0.06 0.06 0.06 0.05 0.04 0.03 0.03 0.03 0.03 0.04 0.04 0.03 0.03 0.03 0.02 0.02 0.03 0.03 0.03 0.03 0.03 0.03 0.03 0.03 0.03 0.03 0.03
0.03 0.03 0.03 0.02 0.02 0.02 0.03 0.03 0.04 0.04 0.05 0.06 0.07 0.07 0.06 0.07 0.06 0.05 0.06 0.06 0.05 0.04 0.04 0.04 0.03 0.03 0.02 0.02 0.02 0.02 0.03 0.02 0.02 0.03 0.03 0.04 0.05 0.05 0.04 0.04 0.03 0.04 0.04 0.04
0.02 0.02 0.02 0.02 0.02 0.02 0.03 0.03 0.03 0.03 0.03 0.04 0.05 0.06 0.05 0.05 0.05 0.05 0.06 0.07 0.05 0.04 0.05 0.05 0.03 0.03 0.03 0.02 0.02 0.03 0.03 0.03 0.03 0.04 0.05 0.05 0.06 0.06 0.05 0.04 0.04 0.04 0.04 0.04
0.01 0.01 0.02 0.02 0.02 0.03 0.03 0.03 0.04 0.04 0.03 0.03 0.03 0.06 0.06 0.05 0.04 0.04 0.05 0.06 0.05 0.03 0.03 0.04 0.04 0.03 0.02 0.01 0.01 0.01 0.02 0.02 0.03 0.03 0.04 0.05 0.05 0.05 0.04 0.03 0.03 0.03 0.03 0.02
0.01 0.02 0.03 0.02 0.02 0.03 0.04 0.03 0.03 0.04 0.03 0.03 0.02 0.04 0.06 0.05 0.04 0.04 0.04 0.03 0.03 0.02 0.02 0.03 0.03 0.03 0.02 0.02 0.01 0.01 0.02 0.02 0.02 0.03 0.03 0.04 0.04 0.04 0.04 0.04 0.04 0.03 0.03 0.03
0.03 0.03 0.03 0.02 0.02 0.02 0.03 0.03 0.03 0.03 0.03 0.02 0.02 0.02 0.03 0.04 0.04 0.02 0.01 0.02 0.02 0.01 0.01 0.01 0.02 0.02 0.02 0.02 0.03 0.03 0.03 0.03 0.04 0.03 0.03 0.03 0.03 0.03 0.03 0.03 0.03 0.04 0.04 0.04
0.03 0.03 0.03 0.03 0.03 0.03 0.03 0.02 0.02 0.02 0.02 0.02 0.02 0.02 0.02 0.03 0.02 0.01 0.01 0.01 0.01 0.01 0.01 0.01 0.02 0.02 0.03 0.02 0.03 0.03 0.03 0.03 0.03 0.03 0.03 0.03 0.03 0.03 0.03 0.03 0.04 0.04 0.04 0.03
0.04 0.05 0.04 0.04 0.04 0.03 0.02 0.02 0.02 0.03 0.03 0.02 0.02 0.03 0.02 0.01 0.01 0.01 0.02 0.02 0.02 0.02 0.02 0.02 0.02 0.02 0.02 0.02 0.03 0.02 0.02 0.02 0.03 0.03 0.03 0.03 0.03 0.02 0.02 0.02 0.02 0.02 0.02 0.02
MSLP
1012.44 1012.41 1012.41 1012.47 1012.61 1012.83 1013.10 1013.40 1013.69 1013.94 1014.12 1014.22 1014.24 1014.19 1014.11 1014.00 1013.89 1013.78 1013.69 1013.60 1013.52 1013.45 1013.38 1013.33 1013.31 1013.34 1013.44 1013.63 1013.89 1014.23 1014.62 1015.03 1015.43 1015.79 1016.09 1016.33 1016.52 1016.66 1016.79 1016.93 1017.10 1017.32 1017.57 1017.85
1012.46 1012.45 1012.45 1012.48 1012.58 1012.75 1012.99 1013.28 1013.59 1013.90 1014.17 1014.40 1014.55 1014.64 1014.66 1014.64 1014.57 1014.47 1014.34 1014.19 1014.02 1013.85 1013.68 1013.54 1013.43 1013.39 1013.43 1013.55 1013.76 1014.04 1014.36 1014.72 1015.07 1015.39 1015.66 1015.88 1016.05 1016.20 1016.35 1016.51 1016.71 1016.96 1017.24 1017.56
1012.54 1012.57 1012.59 1012.62 1012.70 1012.85 1013.06 1013.34 1013.66 1014.01 1014.35 1014.67 1014.92 1015.12 1015.23 1015.28 1015.25 1015.15 1014.99 1014.79 1014.55 1014.29 1014.03 1013.79 1013.59 1013.46 1013.41 1013.44 1013.56 1013.76 1014.01 1014.29 1014.57 1014.84 1015.07 1015.27 1015.44 1015.60 1015.75 1015.94 1016.16 1016.43 1016.74 1017.08
1012.69 1012.77 1012.82 1012.87 1012.95 1013.08 1013.27 1013.54 1013.86 1014.22 1014.59 1014.96 1015.28 1015.54 1015.73 1015.83 1015.84 1015.75 1015.59 1015.35 1015.06 1014.73 1014.39 1014.07 1013.78 1013.55 1013.40 1013.34 1013.36 1013.45 1013.61 1013.80 1014.01 1014.22 1014.42 1014.59 1014.76 1014.92 1015.09 1015.29 1015.53 1015.81 1016.13 1016.48
1012.90 1013.03 1013.11 1013.18 1013.26 1013.38 1013.55 1013.79 1014.09 1014.43 1014.81 1015.19 1015.55 1015.85 1016.08 1016.22 1016.26 1016.21 1016.05 1015.80 1015.49 1015.13 1014.74 1014.35 1013.99 1013.68 1013.44 1013.27 1013.19 1013.18 1013.23 1013.34 1013.48 1013.63 1013.79 1013.95 1014.10 1014.27 1014.45 1014.66 1014.90 1015.18 1015.50 1015.84
1013.14 1013.31 1013.42 1013.51 1013.59 1013.70 1013.84 1014.04 1014.30 1014.61 1014.96 1015.32 1015.68 1015.99 1016.25 1016.42 1016.50 1016.47 1016.34 1016.12 1015.81 1015.44 1015.04 1014.62 1014.21 1013.84 1013.51 1013.26 1013.09 1012.98 1012.95 1012.97 1013.04 1013.14 1013.26 1013.40 1013.55 1013.71 1013.90 1014.11 1014.35 1014.61 1014.91 1015.24
1013.41 1013.59 1013.73 1013.82 1013.91 1013.99 1014.11 1014.26 1014.47 1014.73 1015.03 1015.35 1015.68 1015.98 1016.24 1016.43 1016.54 1016.55 1016.46 1016.27 1016.00 1015.66 1015.26 1014.84 1014.41 1014.00 1013.62 1013.30 1013.05 1012.87 1012.75 1012.70 1012.71 1012.76 1012.85 1012.97 1013.11 1013.27 1013.45 1013.65 1013.88 1014.13 1014.41 1014.70
1013.69 1013.88 1014.03 1014.13 1014.21 1014.29 1014.37 1014.48 1014.63 1014.83 1015.06 1015.33 1015.60 1015.87 1016.12 1016.31 1016.43 1016.47 1016.43 1016.29 1016.06 1015.76 1015.39 1014.99 1014.56 1014.13 1013.73 1013.36 1013.05 1012.81 1012.63 1012.52 1012.47 1012.47 1012.53 1012.62 1012.75 1012.90 1013.07 1013.26 1013.47 1013.70 1013.95 1014.22
1014.01 1014.21 1014.36 1014.47 1014.55 1014.61 1014.67 1014.74 1014.84 1014.97 1015.13 1015.33 1015.54 1015.76 1015.96 1016.13 1016.25 1016.31 1016.29 1016.19 1016.01 1015.75 1015.42 1015.04 1014.63 1014.20 1013.78 1013.38 1013.03 1012.73 1012.50 1012.33 1012.23 1012.20 1012.22 1012.28 1012.38 1012.51 1012.66 1012.84 1013.03 1013.24 1013.48 1013.73
1014.39 1014.59 1014.75 1014.88 1014.96 1015.02 1015.07 1015.10 1015.15 1015.22 1015.31 1015.43 1015.56 1015.71 1015.85 1015.98 1016.07 1016.12 1016.11 1016.03 1015.87 1015.64 1015.35 1014.99 1014.59 1014.17 1013.74 1013.32 1012.93 1012.59 1012.30 1012.08 1011.93 1011.84 1011.82 1011.85 1011.91 1012.02 1012.15 1012.31 1012.49 1012.69 1012.92 1013.17
1014.85 1015.06 1015.24 1015.38 1015.48 1015.55 1015.58 1015.60 1015.60 1015.61 1015.63 1015.67 1015.72 1015.78 1015.85 1015.91 1015.95 1015.96 1015.93 1015.84 1015.69 1015.47 1015.19 1014.84 1014.45 1014.02 1013.57 1013.12 1012.70 1012.31 1011.98 1011.70 1011.49 1011.35 1011.28 1011.26 1011.29 1011.36 1011.48 1011.62 1011.79 1012.00 1012.23 1012.50
1015.39 1015.62 1015.81 1015.97 1016.09 1016.16 1016.19 1016.19 1016.17 1016.12 1016.08 1016.03 1016.00 1015.97 1015.95 1015.94 1015.91 1015.86 1015.79 1015.67 1015.50 1015.26 1014.97 1014.62 1014.21 1013.76 1013.29 1012.82 1012.35 1011.91 1011.52 1011.19 1010.92 1010.73 1010.60 1010.53 1010.52 1010.57 1010.66 1010.79 1010.96 1011.18 1011.43 1011.73
1015.99 1016.23 1016.43 1016.61 1016.73 1016.81 1016.83 1016.81 1016.75 1016.67 1016.56 1016.45 1016.34 1016.23 1016.13 1016.03 1015.93 1015.82 1015.68 1015.52 1015.31 1015.05 1014.73 1014.36 1013.93 1013.46 1012.95 1012.44 1011.93 1011.44 1011.00 1010.61 1010.29 1010.03 1009.85 1009.74 1009.70 1009.71 1009.79 1009.92 1010.10 1010.33 1010.61 1010.94
1016.60 1016.83 1017.03 1017.20 1017.32 1017.38 1017.39 1017.35 1017.27 1017.14 1016.99 1016.82 1016.65 1016.47 1016.30 1016.13 1015.97 1015.80 1015.61 1015.40 1015.15 1014.86 1014.51 1014.11 1013.66 1013.16 1012.63 1012.08 1011.53 1011.00 1010.51 1010.07 1009.70 1009.40 1009.17 1009.03 1008.96 1008.96 1009.03 1009.16 1009.35 1009.60 1009.91 1010.27
1017.16 1017.36 1017.53 1017.67 1017.75 1017.79 1017.78 1017.71 1017.60 1017.45 1017.27 1017.07 1016.86 1016.64 1016.42 1016.21 1016.00 1015.79 1015.57 1015.32 1015.04 1014.72 1014.36 1013.94 1013.46 1012.95 1012.39 1011.82 1011.24 1010.68 1010.16 1009.69 1009.29 1008.96 1008.71 1008.55 1008.47 1008.46 1008.53 1008.67 1008.88 1009.15 1009.48 1009.86
1017.63 1017.77 1017.89 1017.96 1018.00 1017.99 1017.94 1017.85 1017.72 1017.55 1017.36 1017.15 1016.93 1016.70 1016.47 1016.24 1016.02 1015.79 1015.55 1015.29 1015.00 1014.67 1014.30 1013.87 1013.40 1012.88 1012.32 1011.74 1011.16 1010.59 1010.06 1009.58 1009.17 1008.83 1008.58 1008.41 1008.34 1008.34 1008.42 1008.58 1008.80 1009.08 1009.41 1009.80
1017.99 1018.05 1018.08 1018.08 1018.04 1017.99 1017.90 1017.78 1017.64 1017.48 1017.29 1017.10 1016.89 1016.67 1016.46 1016.24 1016.03 1015.81 1015.58 1015.32 1015.04 1014.73 1014.36 1013.95 1013.49 1012.98 1012.45 1011.88 1011.32 1010.77 1010.25 1009.78 1009.38 1009.06 1008.83 1008.68 1008.62 1008.64 1008.74 1008.90 1009.13 1009.41 1009.74 1010.12
1018.25 1018.20 1018.14 1018.05 1017.96 1017.84 1017.73 1017.60 1017.46 1017.31 1017.15 1016.99 1016.81 1016.64 1016.45 1016.27 1016.08 1015.88 1015.67 1015.44 1015.18 1014.88 1014.55 1014.16 1013.73 1013.26 1012.76 1012.24 1011.71 1011.19 1010.71 1010.28 1009.91 1009.62 1009.41 1009.29 1009.25 1009.29 1009.41 1009.58 1009.81 1010.08 1010.40 1010.74
1018.42 1018.29 1018.13 1017.98 1017.83 1017.68 1017.55 1017.42 1017.30 1017.18 1017.06 1016.94 1016.81 1016.67 1016.53 1016.37 1016.21 1016.04 1015.85 1015.64 1015.40 1015.13 1014.82 1014.48 1014.09 1013.67 1013.21 1012.74 1012.26 1011.80 1011.37 1010.98 1010.66 1010.40 1010.23 1010.13 1010.12 1010.17 1010.29 1010.47 1010.69 1010.95 1011.23 1011.53
1018.56 1018.35 1018.14 1017.94 1017.76 1017.61 1017.48 1017.37 1017.28 1017.20 1017.12 1017.04 1016.95 1016.85 1016.73 1016.60 1016.45 1016.29 1016.11 1015.91 1015.68 1015.43 1015.15 1014.84 1014.49 1014.12 1013.72 1013.30 1012.88 1012.48 1012.10 1011.76 1011.48 1011.26 1011.11 1011.03 1011.03 1011.09 1011.21 1011.37 1011.58 1011.80 1012.05 1012.31
1018.69 1018.44 1018.21 1018.00 1017.83 1017.69 1017.59 1017.52 1017.47 1017.43 1017.39 1017.34 1017.28 1017.19 1017.08 1016.94 1016.78 1016.61 1016.41 1016.20 1015.98 1015.73 1015.47 1015.18 1014.87 1014.54 1014.19 1013.83 1013.47 1013.12 1012.79 1012.49 1012.24 1012.04 1011.91 1011.84 1011.84 1011.89 1011.99 1012.14 1012.31 1012.50 1012.71 1012.93
1018.81 1018.58 1018.36 1018.18 1018.04 1017.94 1017.88 1017.86 1017.85 1017.85 1017.83 1017.80 1017.74 1017.64 1017.51 1017.35 1017.16 1016.95 1016.72 1016.48 1016.24 1015.98 1015.72 1015.45 1015.17 1014.88 1014.58 1014.27 1013.96 1013.65 1013.36 1013.09 1012.86 1012.67 1012.54 1012.47 1012.45 1012.48 1012.55 1012.67 1012.81 1012.97 1013.14 1013.32
1018.93 1018.73 1018.56 1018.43 1018.34 1018.30 1018.29 1018.31 1018.34 1018.36 1018.36 1018.33 1018.25 1018.13 1017.96 1017.75 1017.51 1017.25 1016.97 1016.69 1016.42 1016.15 1015.89 1015.63 1015.38 1015.12 1014.85 1014.58 1014.31 1014.04 1013.78 1013.53 1013.32 1013.13 1012.99 1012.90 1012.85 1012.86 1012.90 1012.98 1013.09 1013.22 1013.36 1013.50
1019.01 1018.87 1018.75 1018.68 1018.66 1018.67 1018.71 1018.77 1018.83 1018.86 1018.86 1018.81 1018.70 1018.54 1018.32 1018.06 1017.76 1017.45 1017.13 1016.81 1016.51 1016.23 1015.97 1015.72 1015.49 1015.26 1015.04 1014.81 1014.57 1014.33 1014.10 1013.87 1013.65 1013.47 1013.31 1013.20 1013.13 1013.11 1013.13 1013.18 1013.26 1013.37 1013.48 1013.60
1019.03 1018.94 1018.89 1018.87 1018.90 1018.96 1019.04 1019.13 1019.19 1019.23 1019.21 1019.14 1019.00 1018.80 1018.54 1018.23 1017.89 1017.54 1017.19 1016.85 1016.54 1016.25 1016.00 1015.77 1015.57 1015.37 1015.18 1014.99 1014.79 1014.59 1014.37 1014.16 1013.96 1013.78 1013.62 1013.49 1013.41 1013.37 1013.37 1013.40 1013.46 1013.55 1013.66 1013.77
1018.97 1018.93 1018.92 1018.95 1019.02 1019.11 1019.21 1019.30 1019.37 1019.39 1019.36 1019.27 1019.11 1018.88 1018.59 1018.26 1017.91 1017.54 1017.18 1016.84 1016.54 1016.27 1016.04 1015.84 1015.67 1015.51 1015.36 1015.21 1015.05 1014.88 1014.70 1014.51 1014.33 1014.16 1014.01 1013.89 1013.81 1013.77 1013.76 1013.79 1013.85 1013.94 1014.04 1014.15
1018.84 1018.83 1018.85 1018.90 1018.98 1019.09 1019.19 1019.28 1019.35 1019.37 1019.33 1019.22 1019.05 1018.82 1018.54 1018.21 1017.87 1017.52 1017.18 1016.86 1016.58 1016.35 1016.15 1015.99 1015.86 1015.74 1015.63 1015.52 1015.40 1015.27 1015.13 1014.98 1014.83 1014.69 1014.57 1014.48 1014.42 1014.39 1014.40 1014.45 1014.52 1014.62 1014.72 1014.83
Thickness
5778 5789 5791 5789 5790 5791 5791 5797 5794 5800 5804 5812 5819 5821 5822 5821 5818 5814 5810 5807 5805 5801 5797 5793 5788 5784 5780 5775 5772 5768 5764 5759 5755 5751 5748 5745 5741 5739 5737 5735 5733 5730 5727 5725
5762 5775 5779 5779 5786 5788 5790 5794 5797 5800 5802 5818 5820 5819 5816 5816 5814 5810 5808 5806 5804 5800 5795 5790 5785 5781 5777 5772 5768 5765 5760 5756 5753 5750 5746 5742 5739 5736 5733 5731 5728 5725 5722 5720
5751 5765 5763 5759 5778 5783 5785 5792 5794 5791 5800 5809 5807 5807 5809 5811 5811 5809 5808 5806 5802 5799 5794 5789 5784 5779 5774 5770 5766 5761 5757 5753 5749 5746 5743 5740 5737 5733 5730 5727 5723 5720 5718 5715
5748 5745 5731 5767 5788 5788 5784 5787 5793 5794 5798 5801 5800 5802 5805 5807 5807 5806 5806 5804 5801 5798 5793 5788 5783 5778 5772 5767 5761 5757 5753 5749 5746 5743 5739 5736 5732 5729 5725 5723 5720 5717 5713 5711
5740 5735 5743 5758 5772 5777 5773 5775 5786 5786 5789 5793 5798 5797 5796 5799 5802 5802 5802 5801 5799 5797 5792 5785 5779 5775 5770 5763 5758 5753 5749 5744 5742 5739 5734 5730 5727 5723 5721 5718 5715 5712 5709 5706
5732 5728 5730 5754 5769 5776 5770 5760 5776 5779 5779 5783 5785 5784 5785 5789 5792 5793 5794 5794 5792 5791 5786 5779 5774 5771 5765 5760 5754 5749 5745 5741 5738 5734 5730 5725 5721 5718 5715 5712 5710 5707 5703 5700
5725 5726 5742 5753 5760 5762 5745 5751 5767 5771 5771 5773 5773 5775 5777 5780 5781 5783 5784 5784 5784 5782 5778 5773 5769 5765 5758 5755 5750 5747 5742 5737 5733 5729 5725 5720 5716 5713 5710 5707 5703 5700 5696 5693
5721 5719 5726 5740 5746 5745 5744 5754 5758 5761 5764 5764 5764 5765 5767 5768 5770 5771 5772 5773 5774 5771 5767 5765 5762 5756 5752 5748 5745 5741 5736 5731 5727 5723 5720 5715 5709 5706 5703 5700 5696 5693 5690 5686
5719 5719 5722 5730 5734 5737 5743 5743 5747 5751 5755 5755 5754 5754 5756 5756 5758 5760 5761 5762 5762 5760 5757 5754 5752 5749 5744 5741 5738 5733 5729 5725 5720 5716 5712 5707 5703 5699 5696 5693 5692 5689 5685 5681
5702 5706 5713 5718 5723 5728 5732 5734 5739 5742 5745 5746 5744 5745 5745 5746 5747 5748 5749 5750 5749 5748 5745 5742 5741 5740 5737 5734 5730 5726 5722 5717 5713 5708 5704 5699 5696 5693 5690 5687 5685 5683 5679 5675
5688 5693 5699 5704 5709 5714 5718 5723 5726 5730 5733 5734 5734 5733 5734 5734 5735 5736 5737 5738 5737 5735 5733 5731 5730 5729 5728 5725 5722 5717 5714 5710 5707 5703 5698 5692 5688 5684 5682 5677 5676 5673 5672 5669
5680 5687 5691 5691 5698 5703 5705 5707 5712 5716 5718 5722 5723 5723 5724 5724 5725 5725 5726 5726 5725 5724 5723 5721 5720 5718 5717 5715 5712 5709 5706 5703 5701 5697 5692 5687 5682 5676 5668 5666 5662 5659 5656 5655
5674 5680 5683 5685 5689 5692 5693 5696 5700 5703 5706 5708 5711 5714 5714 5713 5714 5714 5714 5715 5714 5713 5712 5711 5710 5707 5705 5704 5702 5700 5698 5696 5693 5689 5685 5681 5677 5672 5666 5657 5652 5649 5647 5644
5664 5668 5669 5673 5676 5681 5683 5686 5689 5692 5695 5697 5699 5701 5702 5702 5703 5703 5703 5704 5705 5703 5702 5701 5699 5697 5695 5694 5692 5691 5690 5686 5683 5680 5677 5674 5670 5667 5663 5658 5653 5647 5639 5634
5654 5659 5661 5664 5667 5671 5674 5676 5677 5679 5681 5684 5687 5689 5689 5690 5690 5691 5692 5693 5693 5691 5689 5688 5686 5685 5684 5684 5682 5681 5680 5677 5674 5672 5669 5666 5663 5659 5656 5651 5648 5643 5638 5629
5643 5648 5651 5653 5656 5660 5663 5665 5666 5668 5671 5673 5675 5677 5678 5679 5680 5680 5680 5681 5680 5678 5676 5675 5674 5674 5674 5673 5671 5670 5668 5664 5662 5661 5659 5656 5653 5650 5646 5642 5639 5635 5631 5626
5631 5635 5639 5642 5645 5649 5652 5655 5658 5660 5662 5662 5664 5666 5666 5667 5667 5667 5668 5669 5668 5667 5666 5664 5664 5664 5663 5662 5661 5661 5658 5654 5650 5651 5649 5646 5643 5640 5637 5634 5630 5627 5623 5617
5623 5627 5630 5632 5635 5638 5641 5645 5648 5650 5652 5654 5654 5655 5655 5655 5655 5655 5656 5657 5656 5656 5655 5655 5654 5653 5652 5651 5650 5650 5648 5646 5643 5641 5638 5635 5632 5629 5627 5624 5620 5616 5613 5607
5615 5618 5622 5624 5626 5629 5632 5635 5638 5640 5642 5643 5642 5643 5644 5644 5645 5645 5645 5645 5644 5643 5643 5643 5640 5641 5640 5639 5638 5638 5637 5635 5632 5629 5627 5621 5619 5618 5616 5613 5610 5606 5603 5598
5606 5610 5613 5616 5619 5621 5623 5626 5628 5630 5632 5632 5632 5632 5632 5632 5633 5633 5633 5633 5633 5634 5632 5631 5630 5630 5629 5628 5626 5627 5626 5624 5622 5619 5616 5613 5610 5608 5605 5602 5599 5595 5592 5588
5598 5601 5604 5607 5610 5612 5615 5617 5619 5620 5621 5621 5621 5621 5621 5622 5623 5623 5623 5623 5622 5621 5620 5617 5619 5619 5619 5617 5615 5617 5615 5613 5611 5608 5605 5603 5600 5597 5594 5591 5588 5585 5582 5579
5590 5593 5596 5599 5602 5604 5606 5608 5610 5611 5611 5611 5612 5612 5612 5612 5613 5613 5613 5613 5611 5608 5610 5611 5610 5607 5607 5605 5607 5607 5604 5602 5600 5598 5596 5593 5590 5587 5584 5581 5578 5575 5572 5569
5582 5585 5588 5591 5594 5595 5598 5600 5601 5601 5602 5602 5602 5602 5603 5603 5604 5604 5602 5603 5602 5598 5600 5600 5596 5593 5593 5596 5597 5596 5594 5592 5590 5589 5586 5583 5581 5578 5575 5572 5568 5565 5561 5558
5575 5578 5581 5584 5586 5588 5589 5591 5592 5592 5593 5592 5593 5593 5593 5594 5594 5595 5594 5589 5589 5588 5589 5585 5583 5582 5582 5587 5587 5585 5584 5582 5580 5578 5576 5574 5571 5568 5564 5561 5557 5554 5551 5547
5570 5573 5575 5577 5579 5580 5581 5582 5583 5583 5584 5584 5584 5584 5586 5586 5586 5585 5584 5582 5578 5579 5579 5575 5573 5573 5576 5577 5576 5574 5572 5570 5568 5566 5563 5561 5559 5555 5552 5549 5546 5543 5539 5537
5565 5568 5570 5571 5572 5573 5574 5575 5576 5576 5577 5577 5576 5576 5576 5576 5575 5575 5574 5573 5572 5570 5571 5569 5567 5565 5567 5566 5564 5563 5561 5559 5557 5554 5552 5550 5547 5544 5541 5538 5534 5531 5528 5525
5562 5563 5564 5565 5566 5568 5568 5569 5569 5569 5569 5569 5568 5568 5568 5567 5567 5566 5565 5564 5564 5563 5562 5561 5560 5559 5558 5556 5554 5552 5550 5548 5546 5543 5541 5538 5535 5532 5529 5525 5523 5520 5517 5514